Location: Neuvy Saint Sepulchre
(46.5953°N, 1.8122°E)
Time: 16:26:00
(UTC+02:00)

ISS - Pass Details

Date: 12 May 2026
Orbit: 414 x 424 km, 51.6° (Epoch: 21 May)

Event Time Altitude Azimuth Distance (km) Brightness Sun altitude
Rises 22:28:50 0° 256° (WSW) 2,344 0.6 -11.0°
Reaches altitude 10° 22:30:57 10° 261° (W) 1,484 -0.4 -11.3°
Maximum altitude 22:34:13 54° 340° (NNW) 509 -3.0 -11.7°
Drops below altitude 10° 22:37:30 10° 60° (ENE) 1,491 -1.1 -12.1°
Sets 22:39:38 0° 65° (ENE) 2,357 -0.2 -12.3°
